Weather History for KFSM - July, 2013

Change the Weather History Date:

Wednesday, July 3, 2013

  Actual Average Record
Temperature  
Mean Temperature 75 °F 81 °F  
Max Temperature 88 °F 92 °F 106 °F (1990)
Min Temperature 62 °F 71 °F 57 °F (1924)
Cooling Degree Days 10 16  
Month to date cooling degree days 32 48  
Year to date cooling degree days 759 677  
Since 1 June cooling degree days 485 433  
Growing Degree Days 25 (Base 50)    
Moisture  
Dew Point 56 °F    
Average Humidity 54    
Maximum Humidity 78    
Minimum Humidity 29    
Precipitation  
Precipitation 0.00 in 0.12 in 2.22 in (1895)
Month to date precipitation 0.00 0.37  
Year to date precipitation 27.08 23.84  
Sea Level Pressure  
Sea Level Pressure 30.04 in    
Wind  
Wind Speed 5 mph (ENE)    
Max Wind Speed 12 mph    
Max Gust Speed 15 mph    
Visibility 10 miles    
Events      
T = Trace of Precipitation, MM = Missing Value Source: NWS Daily Summary

Daily Weather History Graph

Daily Weather History Graph

Search for Another Location

Airport or City:

Trip Planner

Search our weather history database for the weather conditions in past years. The results will help you decide how hot, cold, wet, or windy it might be!

Date:

Astronomy

Jul. 03, 2013 Rise Set
Actual Time 6:07 AM CDT 8:36 PM CDT
Civil Twilight 5:37 AM CDT 9:05 PM CDT
Nautical Twilight 5:00 AM CDT 9:42 PM CDT
Astronomical Twilight 4:20 AM CDT 10:22 PM CDT
Moon 2:41 AM CDT 4:50 PM CDT
Length of Visible Light 15h 28m
Length of Day
14h 28m
Waning Crescent, 18% of the Moon is Illuminated
Jul 3
Waning Crescent
Jul 8
New
Jul 15
First Quarter
Jul 22
Full
Jul 29
Last Quarter

Hourly Weather History & Observations

Time (CDT) Temp. Heat Index Dew Point Humidity Pressure Visibility Wind Dir Wind Speed Gust Speed Precip Events Conditions
12:53 AM 69.1 °F - 57.0 °F 65% 30.05 in 10.0 mi Calm Calm - N/A   Clear
1:53 AM 68.0 °F - 57.0 °F 68% 30.05 in 10.0 mi ENE 3.5 mph - N/A   Clear
2:53 AM 64.9 °F - 57.9 °F 78% 30.04 in 10.0 mi ENE 3.5 mph - N/A   Clear
3:53 AM 64.0 °F - 55.9 °F 75% 30.05 in 10.0 mi NE 5.8 mph - N/A   Clear
4:53 AM 63.0 °F - 55.0 °F 75% 30.06 in 10.0 mi ENE 4.6 mph - N/A   Clear
5:53 AM 63.0 °F - 55.9 °F 78% 30.07 in 10.0 mi NE 3.5 mph - N/A   Clear
6:53 AM 63.0 °F - 55.9 °F 78% 30.08 in 10.0 mi Calm Calm - N/A   Clear
7:53 AM 66.0 °F - 57.9 °F 75% 30.09 in 10.0 mi NE 5.8 mph - N/A   Clear
8:53 AM 70.0 °F - 59.0 °F 68% 30.10 in 10.0 mi ENE 6.9 mph - N/A   Clear
9:53 AM 73.9 °F - 59.0 °F 59% 30.10 in 10.0 mi East 5.8 mph - N/A   Clear
10:53 AM 78.1 °F - 59.0 °F 52% 30.09 in 10.0 mi ENE 6.9 mph - N/A   Clear
11:53 AM 81.0 °F 81.3 °F 59.0 °F 47% 30.08 in 10.0 mi East 8.1 mph - N/A   Clear
12:53 PM 82.9 °F 82.4 °F 57.0 °F 41% 30.06 in 10.0 mi Variable 4.6 mph - N/A   Clear
1:53 PM 84.0 °F 82.6 °F 54.0 °F 35% 30.04 in 10.0 mi Calm Calm - N/A   Clear
2:53 PM 87.1 °F 85.3 °F 55.0 °F 33% 30.02 in 10.0 mi NE 5.8 mph - N/A   Clear
3:53 PM 86.0 °F - 51.1 °F 30% 30.01 in 10.0 mi Variable 4.6 mph - N/A   Clear
4:53 PM 88.0 °F - 51.1 °F 28% 29.99 in 10.0 mi ENE 10.4 mph - N/A   Clear
5:53 PM 87.1 °F - 52.0 °F 30% 29.99 in 10.0 mi North 4.6 mph - N/A   Clear
6:53 PM 84.9 °F 83.2 °F 53.1 °F 33% 29.97 in 10.0 mi East 5.8 mph - N/A   Clear
7:53 PM 82.0 °F 82.0 °F 57.9 °F 44% 29.97 in 10.0 mi East 5.8 mph - N/A   Clear
8:53 PM 78.1 °F - 57.0 °F 48% 29.97 in 10.0 mi Calm Calm - N/A   Clear
9:53 PM 77.0 °F - 57.0 °F 50% 29.99 in 10.0 mi ESE 3.5 mph - N/A   Clear
10:53 PM 75.9 °F - 57.0 °F 52% 30.00 in 10.0 mi Calm Calm - N/A   Clear
11:53 PM 73.0 °F - 59.0 °F 61% 30.01 in 10.0 mi ENE 3.5 mph - N/A   Clear